Location: *
(45.1961°N, 1.9694°E)
Time: 05:34:08
(UTC+00:00)

Cosmos 2154 Rocket - Pass Details

Date: 25 August 2019
Orbit: 965 x 997 km, 82.9° (Epoch: 14 September)

Event Time Altitude Azimuth Distance (km) Brightness Sun altitude
Rises 21:56:02 0° 351° (N) 3,691 8.0 -28.2°
Reaches altitude 10° 21:58:34 10° 351° (N) 2,734 7.1 -28.4°
Maximum altitude 22:04:50 87° 264° (W) 979 3.9 -29.0°
Enters shadow 22:05:05 83° 201° (SSW) 984 3.8 -29.0°
